Flag Weather past 2 weeks in Saint-Jérôme, Quebec, Canada

Now
39 °F

Passing clouds.


Feels Like: 39 °F
Forecast: 36 / 46 °F
Wind: 2 mph from North

Location: Montreal / Mirabel

Current Time: Oct 30, 2014 at 10:13:55 AM

Latest Report: Oct 30, 2014 at 9:00 AM


Visibility: 35 mi

Pressure: 29.98 "Hg

Humidity: 75%

Dew point: 32 °F

Location of Saint-JérômeLocation

Historic Weather in Saint-Jérôme — Graph

°F

Saint-Jérôme temperature yesterday

Maximum temperature yesterday: 54 °F (at 12:00 PM)
Minimum temperature yesterday: 43 °F (at 6:00 AM)
Average temperature yesterday: 49 °F

Past Weeks' High & Low Weather Summary

 TemperatureHumidityPressure
High73 °F (Oct 15, 3:00 PM)100% (Oct 15, 8:00 PM)30.32 "Hg (Oct 15, 8:00 PM)
Low32 °F (Oct 20, 8:00 AM)42% (Oct 19, 6:00 PM)29.40 "Hg (Oct 26, 3:00 AM)
Average49 °F78%29.84 "Hg
* Reported Oct 15 8:00 AM — Oct 30 8:00 AM, Saint-Jérôme, Weather by CustomWeather, © 2014

Note: Actual official high and low records may vary slightly from our data, if they occured in-between our weather recording intervals... More about our weather records

Advertising

Saint-Jérôme weather history for previous 24 hours

 ConditionsComfort  
Time TempWeatherWind HumidityBarometerVisibility
8:00 AM
Oct 30
36 °FPassing clouds.3 mph87%29.97 "Hg35 mi
7:00 AM37 °FPassing clouds.5 mph81%29.94 "Hg45 mi
6:00 AM39 °FPassing clouds.3 mph81%29.92 "Hg25 mi
5:00 AM39 °FPassing clouds.3 mph81%29.90 "Hg25 mi
4:00 AM43 °FPassing clouds.6 mph76%29.87 "Hg25 mi
3:00 AM45 °FPartly cloudy.6 mph71%29.86 "Hg25 mi
2:00 AM46 °FMostly cloudy.8 mph66%29.85 "Hg25 mi
1:00 AM46 °FPassing clouds.7 mph76%29.83 "Hg25 mi
12:00 AM46 °FPassing clouds.7 mph82%29.82 "Hg25 mi
11:00 PM
Oct 29
46 °FPassing clouds.7 mph76%29.82 "Hg25 mi
10:00 PM48 °FPassing clouds.7 mph71%29.82 "Hg25 mi
9:00 PM48 °FPassing clouds.7 mph71%29.82 "Hg25 mi
8:00 PM50 °FPartly cloudy.8 mph62%29.82 "Hg25 mi
7:00 PM50 °FPassing clouds.8 mph62%29.81 "Hg25 mi
6:00 PM50 °FPartly sunny.8 mph58%29.79 "Hg25 mi
5:00 PM52 °FBroken clouds.10 mph54%29.78 "Hg25 mi
4:00 PM52 °FPartly sunny.9 mph54%29.78 "Hg45 mi
3:00 PM54 °FMostly cloudy.15 mph54%29.77 "Hg45 mi
2:00 PM54 °FMostly cloudy.13 mph58%29.77 "Hg45 mi
1:00 PM54 °FBroken clouds.15 mph67%29.77 "Hg30 mi
12:00 PM54 °FBroken clouds.14 mph77%29.78 "Hg15 mi
11:00 AM52 °FFog.6 mph100%29.77 "Hg6 mi
10:00 AM50 °FFog.3 mph100%29.78 "Hg2 mi
Weather by CustomWeather, © 2014

See weather overviewHow to use our weather pages